| time (UTC) | temp F | wind direction | speed knots | gust knots | rain 1hr in | rain 24hr in | rain mn in | humidity % | barometer mb |
| 20260506232649 | 54 | 119 | 1.7 | 4.3 | 0.00 | 0.01 | 0.01 | 87 | 1021.3 |
| 20260506231649 | 54 | 98 | 1.7 | 3.5 | 0.00 | 0.01 | 0.01 | 87 | 1021.4 |
| 20260506230149 | 53 | 115 | 2.6 | 3.5 | 0.00 | 0.01 | 0.01 | 87 | 1021.4 |
| 20260506225648 | 53 | 141 | 2.6 | 4.3 | 0.00 | 0.01 | 0.01 | 88 | 1021.4 |
| 20260506225149 | 54 | 101 | 2.6 | 4.3 | 0.00 | 0.01 | 0.01 | 88 | 1021.5 |
| 20260506224648 | 54 | 73 | 2.6 | 4.3 | 0.00 | 0.01 | 0.01 | 88 | 1021.6 |
| 20260506224149 | 54 | 98 | 1.7 | 4.3 | 0.00 | 0.01 | 0.01 | 88 | 1021.5 |
| 20260506223649 | 54 | 75 | 2.6 | 3.5 | 0.00 | 0.01 | 0.01 | 88 | 1021.5 |
| 20260506223149 | 54 | 121 | 1.7 | 3.5 | 0.00 | 0.01 | 0.01 | 87 | 1021.5 |
| 20260506222648 | 54 | 132 | 0.9 | 3.5 | 0.00 | 0.01 | 0.01 | 88 | 1021.5 |
| 20260506222148 | 53 | 126 | 1.7 | 3.5 | 0.00 | 0.01 | 0.01 | 88 | 1021.5 |
| 20260506221648 | 53 | 93 | 1.7 | 3.5 | 0.00 | 0.01 | 0.01 | 89 | 1021.5 |
| 20260506221148 | 53 | 105 | 0.9 | 2.6 | 0.00 | 0.01 | 0.01 | 89 | 1021.5 |
| 20260506220648 | 53 | 129 | 0.9 | 3.5 | 0.00 | 0.01 | 0.01 | 89 | 1021.5 |
| 20260506220148 | 53 | 94 | 0.9 | 4.3 | 0.00 | 0.01 | 0.01 | 89 | 1021.6 |
| 20260506215647 | 53 | 126 | 1.7 | 4.3 | 0.00 | 0.01 | 0.01 | 89 | 1021.5 |
| 20260506215147 | 53 | 125 | 0.9 | 4.3 | 0.00 | 0.01 | 0.01 | 89 | 1021.5 |
| 20260506214648 | 53 | 88 | 1.7 | 4.3 | 0.00 | 0.01 | 0.01 | 89 | 1021.5 |
| 20260506214148 | 53 | 98 | 2.6 | 3.5 | 0.00 | 0.01 | 0.01 | 88 | 1021.6 |
| 20260506213147 | 53 | 108 | 0.9 | 4.3 | 0.00 | 0.01 | 0.01 | 88 | 1021.7 |
| 20260506212647 | 54 | 94 | 1.7 | 4.3 | 0.00 | 0.01 | 0.01 | 86 | 1021.7 |
| 20260506212147 | 55 | 263 | 1.7 | 2.6 | 0.00 | 0.01 | 0.01 | 86 | 1021.7 |
| 20260506211147 | 54 | 248 | 0.0 | 5.2 | 0.00 | 0.01 | 0.01 | 87 | 1021.6 |
| 20260506210647 | 54 | 251 | 0.0 | 5.2 | 0.00 | 0.01 | 0.01 | 87 | 1021.7 |
| 20260506210147 | 54 | 243 | 3.5 | 4.3 | 0.00 | 0.01 | 0.01 | 88 | 1021.6 |
| 20260506205646 | 53 | 241 | 1.7 | 4.3 | 0.00 | 0.01 | 0.01 | 89 | 1021.5 |
| 20260506205146 | 53 | 220 | 0.9 | 4.3 | 0.00 | 0.01 | 0.01 | 90 | 1021.5 |
| 20260506204647 | 53 | 321 | 1.7 | 6.1 | 0.00 | 0.01 | 0.01 | 90 | 1021.6 |
| 20260506204147 | 52 | 252 | 0.9 | 6.1 | 0.00 | 0.01 | 0.01 | 91 | 1021.5 |
| 20260506203646 | 52 | 265 | 0.0 | 5.2 | 0.00 | 0.01 | 0.01 | 91 | 1021.6 |
| 20260506203146 | 52 | 244 | 0.9 | 7.0 | 0.00 | 0.01 | 0.01 | 92 | 1021.7 |
| 20260506202646 | 52 | 270 | 1.7 | 7.0 | 0.00 | 0.01 | 0.01 | 92 | 1021.7 |
| 20260506202146 | 52 | 287 | 2.6 | 6.1 | 0.00 | 0.01 | 0.01 | 93 | 1021.6 |
| 20260506201646 | 52 | 243 | 0.9 | 4.3 | 0.00 | 0.01 | 0.01 | 93 | 1021.6 |
| 20260506200646 | 51 | 255 | 1.7 | 6.1 | 0.00 | 0.01 | 0.01 | 93 | 1021.6 |
| 20260506200146 | 51 | 259 | 2.6 | 6.1 | 0.00 | 0.01 | 0.01 | 93 | 1021.5 |
| 20260506195645 | 51 | 336 | 2.6 | 6.1 | 0.00 | 0.01 | 0.01 | 94 | 1021.5 |
| 20260506195145 | 51 | 302 | 0.9 | 6.1 | 0.00 | 0.01 | 0.01 | 94 | 1021.5 |
| 20260506194646 | 51 | 325 | 1.7 | 6.1 | 0.00 | 0.01 | 0.01 | 94 | 1021.4 |
| 20260506194145 | 51 | 307 | 0.9 | 5.2 | 0.00 | 0.01 | 0.01 | 94 | 1021.4 |
| 20260506193645 | 50 | 279 | 1.7 | 5.2 | 0.00 | 0.01 | 0.01 | 95 | 1021.3 |
| 20260506192145 | 50 | 263 | 1.7 | 7.0 | 0.00 | 0.01 | 0.01 | 96 | 1021.3 |
| 20260506191145 | 50 | 229 | 3.5 | 6.1 | 0.00 | 0.01 | 0.01 | 96 | 1021.2 |
| 20260506190645 | 50 | 296 | 1.7 | 6.1 | 0.00 | 0.01 | 0.01 | 96 | 1021.2 |
| 20260506190145 | 50 | 287 | 1.7 | 6.1 | 0.00 | 0.01 | 0.01 | 96 | 1021.2 |
| 20260506185645 | 50 | 252 | 0.0 | 6.1 | 0.00 | 0.01 | 0.01 | 96 | 1021.1 |
| 20260506185144 | 50 | 266 | 1.7 | 6.1 | 0.00 | 0.01 | 0.01 | 96 | 1021.1 |
| 20260506184144 | 50 | 237 | 0.0 | 5.2 | 0.00 | 0.01 | 0.01 | 96 | 1021.1 |
| 20260506183644 | 50 | 272 | 0.9 | 6.1 | 0.00 | 0.01 | 0.01 | 97 | 1021.0 |
| 20260506183144 | 50 | 288 | 3.5 | 6.1 | 0.00 | 0.01 | 0.01 | 96 | 1021.0 |
| 20260506182644 | 50 | 283 | 1.7 | 7.0 | 0.00 | 0.01 | 0.01 | 96 | 1021.0 |
| 20260506182144 | 50 | 338 | 1.7 | 7.0 | 0.00 | 0.01 | 0.01 | 97 | 1021.0 |
| 20260506181143 | 49 | 278 | 2.6 | 6.1 | 0.00 | 0.01 | 0.01 | 97 | 1021.0 |
| 20260506180644 | 49 | 252 | 1.7 | 5.2 | 0.00 | 0.01 | 0.01 | 97 | 1021.0 |
| 20260506180143 | 49 | 326 | 4.3 | 5.2 | 0.00 | 0.01 | 0.01 | 97 | 1021.0 |
| 20260506175643 | 49 | 303 | 1.7 | 5.2 | 0.01 | 0.01 | 0.01 | 97 | 1021.0 |
| 20260506174643 | 49 | 283 | 2.6 | 4.3 | 0.01 | 0.01 | 0.01 | 97 | 1020.8 |
| 20260506174143 | 49 | 288 | 2.6 | 3.5 | 0.01 | 0.01 | 0.01 | 97 | 1020.8 |
| 20260506173643 | 49 | 261 | 0.0 | 5.2 | 0.01 | 0.01 | 0.01 | 97 | 1020.7 |
| 20260506173143 | 49 | 292 | 1.7 | 5.2 | 0.01 | 0.01 | 0.01 | 97 | 1020.7 |
| 20260506172643 | 49 | 309 | 3.5 | 5.2 | 0.01 | 0.01 | 0.01 | 97 | 1020.7 |
| 20260506172143 | 49 | 292 | 3.5 | 5.2 | 0.01 | 0.01 | 0.01 | 97 | 1020.6 |
| 20260506171643 | 49 | 282 | 4.3 | 4.3 | 0.01 | 0.01 | 0.01 | 97 | 1020.7 |
| 20260506171143 | 49 | 293 | 1.7 | 4.3 | 0.01 | 0.01 | 0.01 | 97 | 1020.6 |
| 20260506170642 | 49 | 282 | 1.7 | 3.5 | 0.01 | 0.01 | 0.01 | 97 | 1020.5 |
| 20260506170143 | 49 | 288 | 1.7 | 3.5 | 0.01 | 0.01 | 0.01 | 97 | 1020.3 |
| 20260506165642 | 49 | 304 | 1.7 | 3.5 | 0.00 | 0.00 | 0.00 | 97 | 1020.2 |
| 20260506165142 | 49 | 285 | 0.9 | 5.2 | 0.00 | 0.00 | 0.00 | 97 | 1020.4 |
| 20260506164642 | 49 | 299 | 2.6 | 5.2 | 0.00 | 0.00 | 0.00 | 97 | 1020.5 |
| 20260506164142 | 49 | 307 | 2.6 | 5.2 | 0.00 | 0.00 | 0.00 | 97 | 1020.5 |
| 20260506163642 | 49 | 269 | 2.6 | 5.2 | 0.00 | 0.00 | 0.00 | 97 | 1020.6 |
| 20260506163142 | 49 | 262 | 1.7 | 5.2 | 0.00 | 0.00 | 0.00 | 97 | 1020.5 |
| 20260506162141 | 49 | 266 | 1.7 | 4.3 | 0.00 | 0.00 | 0.00 | 97 | 1020.5 |
| 20260506161642 | 49 | 319 | 4.3 | 4.3 | 0.00 | 0.00 | 0.00 | 97 | 1020.5 |
| 20260506161141 | 49 | 329 | 2.6 | 4.3 | 0.00 | 0.00 | 0.00 | 96 | 1020.7 |
| 20260506160641 | 49 | 327 | 0.9 | 3.5 | 0.00 | 0.00 | 0.00 | 97 | 1020.8 |
| 20260506160141 | 50 | 291 | 0.9 | 2.6 | 0.00 | 0.00 | 0.00 | 97 | 1020.7 |
| 20260506155641 | 50 | 46 | 1.7 | 2.6 | 0.00 | 0.00 | 0.00 | 96 | 1020.6 |
| 20260506155141 | 50 | 265 | 2.6 | 2.6 | 0.00 | 0.00 | 0.00 | 97 | 1020.6 |
| 20260506154641 | 50 | 82 | 0.0 | 1.7 | 0.00 | 0.00 | 0.00 | 97 | 1020.5 |
| 20260506154141 | 50 | 81 | 0.0 | 0.9 | 0.00 | 0.00 | 0.00 | 97 | 1020.5 |
| 20260506153641 | 50 | 82 | 0.0 | 1.7 | 0.00 | 0.00 | 0.00 | 97 | 1020.5 |
| 20260506153140 | 50 | 82 | 0.0 | 1.7 | 0.00 | 0.00 | 0.00 | 97 | 1020.6 |
| 20260506152640 | 50 | 82 | 0.0 | 0.0 | 0.00 | 0.00 | 0.00 | 97 | 1020.4 |
| 20260506152140 | 50 | 82 | 0.0 | 0.0 | 0.00 | 0.00 | 0.00 | 97 | 1020.2 |
| 20260506151640 | 49 | 82 | 0.0 | 0.9 | 0.00 | 0.00 | 0.00 | 97 | 1020.1 |
| 20260506151141 | 49 | 82 | 0.0 | 0.9 | 0.00 | 0.00 | 0.00 | 96 | 1020.0 |
| 20260506145640 | 50 | 112 | 1.7 | 2.6 | 0.00 | 0.00 | 0.00 | 96 | 1019.8 |
| 20260506145140 | 50 | 82 | 1.7 | 2.6 | 0.00 | 0.00 | 0.00 | 96 | 1019.8 |
| 20260506144640 | 50 | 98 | 0.9 | 2.6 | 0.00 | 0.00 | 0.00 | 96 | 1019.8 |
| 20260506144139 | 50 | 110 | 2.6 | 2.6 | 0.00 | 0.00 | 0.00 | 96 | 1019.9 |
| 20260506143640 | 50 | 96 | 0.0 | 2.6 | 0.00 | 0.00 | 0.00 | 96 | 1020.0 |
| 20260506143139 | 50 | 96 | 0.0 | 2.6 | 0.00 | 0.00 | 0.00 | 96 | 1020.1 |
| 20260506142639 | 50 | 119 | 2.6 | 2.6 | 0.00 | 0.00 | 0.00 | 96 | 1020.0 |
| 20260506142140 | 50 | 116 | 1.7 | 1.7 | 0.00 | 0.00 | 0.00 | 96 | 1020.0 |
| 20260506141639 | 50 | 116 | 0.0 | 0.9 | 0.00 | 0.00 | 0.00 | 96 | 1020.1 |
| 20260506141139 | 50 | 116 | 0.0 | 0.9 | 0.00 | 0.00 | 0.00 | 96 | 1020.1 |
| 20260506140639 | 50 | 116 | 0.0 | 2.6 | 0.00 | 0.00 | 0.00 | 96 | 1019.9 |
| 20260506135639 | 50 | 288 | 1.7 | 1.7 | 0.00 | 0.00 | 0.00 | 96 | 1019.6 |
| 20260506134639 | 50 | 288 | 0.0 | 0.0 | 0.00 | 0.00 | 0.00 | 96 | 1019.6 |
| 20260506134139 | 50 | 288 | 0.0 | 0.0 | 0.00 | 0.00 | 0.00 | 96 | 1019.6 |
| 20260506133639 | 50 | 288 | 0.0 | 0.0 | 0.00 | 0.00 | 0.00 | 96 | 1019.6 |
| 20260506133138 | 49 | 288 | 0.0 | 0.9 | 0.00 | 0.00 | 0.00 | 96 | 1019.5 |
| 20260506132639 | 49 | 288 | 0.0 | 0.9 | 0.00 | 0.00 | 0.00 | 96 | 1019.5 |
| 20260506132139 | 49 | 288 | 0.0 | 1.7 | 0.00 | 0.00 | 0.00 | 96 | 1019.5 |
| 20260506131638 | 49 | 288 | 0.9 | 1.7 | 0.00 | 0.00 | 0.00 | 96 | 1019.6 |
| 20260506131138 | 49 | 288 | 0.0 | 2.6 | 0.00 | 0.00 | 0.00 | 95 | 1019.4 |
| 20260506130638 | 49 | 288 | 0.9 | 2.6 | 0.00 | 0.00 | 0.00 | 95 | 1019.5 |
| 20260506130138 | 49 | 257 | 0.0 | 1.7 | 0.00 | 0.00 | 0.00 | 95 | 1019.3 |
| 20260506125138 | 49 | 268 | 0.9 | 2.6 | 0.00 | 0.00 | 0.00 | 95 | 1019.6 |
| 20260506124638 | 49 | 262 | 0.9 | 3.5 | 0.00 | 0.00 | 0.00 | 95 | 1019.5 |
| 20260506124137 | 49 | 262 | 0.0 | 3.5 | 0.00 | 0.00 | 0.00 | 95 | 1019.6 |
| 20260506123638 | 50 | 288 | 0.9 | 3.5 | 0.00 | 0.00 | 0.00 | 95 | 1019.6 |
| 20260506123137 | 50 | 279 | 0.9 | 3.5 | 0.00 | 0.00 | 0.00 | 95 | 1019.6 |
| 20260506122138 | 50 | 299 | 1.7 | 3.5 | 0.00 | 0.00 | 0.00 | 94 | 1019.4 |
| 20260506121637 | 50 | 269 | 0.0 | 3.5 | 0.00 | 0.00 | 0.00 | 94 | 1019.4 |
| 20260506120637 | 50 | 250 | 0.0 | 1.7 | 0.00 | 0.00 | 0.00 | 94 | 1019.5 |
| 20260506120137 | 50 | 115 | 0.0 | 1.7 | 0.00 | 0.00 | 0.00 | 94 | 1019.4 |
| 20260506115636 | 50 | 115 | 0.0 | 1.7 | 0.00 | 0.00 | 0.00 | 94 | 1019.2 |
| 20260506115137 | 50 | 115 | 1.7 | 1.7 | 0.00 | 0.00 | 0.00 | 94 | 1019.3 |
| 20260506114637 | 50 | 214 | 0.0 | 0.9 | 0.00 | 0.00 | 0.00 | 94 | 1019.4 |
| 20260506114137 | 50 | 214 | 0.0 | 0.9 | 0.00 | 0.00 | 0.00 | 94 | 1019.4 |
| 20260506113636 | 50 | 214 | 0.0 | 0.9 | 0.00 | 0.00 | 0.00 | 93 | 1019.3 |
| 20260506113137 | 50 | 214 | 0.0 | 0.9 | 0.00 | 0.00 | 0.00 | 93 | 1019.3 |
| 20260506112636 | 50 | 214 | 0.0 | 0.9 | 0.00 | 0.00 | 0.00 | 93 | 1019.1 |
| 20260506112136 | 50 | 214 | 0.0 | 0.0 | 0.00 | 0.00 | 0.00 | 93 | 1019.1 |
| 20260506111206 | 50 | 214 | 0.0 | 0.9 | 0.00 | 0.00 | 0.00 | 93 | 1019.1 |
| 20260506110706 | 50 | 214 | 0.0 | 0.9 | 0.00 | 0.00 | 0.00 | 93 | 1019.0 |
| 20260506110136 | 50 | 214 | 0.0 | 0.9 | 0.00 | 0.00 | 0.00 | 93 | 1019.0 |
| 20260506105636 | 50 | 214 | 0.0 | 0.9 | 0.00 | 0.00 | 0.00 | 93 | 1018.7 |
| 20260506105206 | 50 | 214 | 0.0 | 0.9 | 0.00 | 0.00 | 0.00 | 93 | 1018.7 |
| 20260506104706 | 50 | 214 | 0.0 | 1.7 | 0.00 | 0.00 | 0.00 | 93 | 1018.6 |
| 20260506104135 | 50 | 214 | 0.0 | 1.7 | 0.00 | 0.00 | 0.00 | 93 | 1018.5 |
| 20260506103705 | 50 | 217 | 0.0 | 1.7 | 0.00 | 0.00 | 0.00 | 93 | 1018.5 |
| 20260506103136 | 50 | 217 | 0.0 | 1.7 | 0.00 | 0.00 | 0.00 | 93 | 1018.4 |
| 20260506102635 | 50 | 238 | 0.0 | 1.7 | 0.00 | 0.00 | 0.00 | 93 | 1018.3 |
| 20260506102205 | 50 | 255 | 0.0 | 0.0 | 0.00 | 0.00 | 0.00 | 93 | 1018.3 |
| 20260506101705 | 50 | 255 | 0.0 | 0.0 | 0.00 | 0.00 | 0.00 | 93 | 1018.2 |
| 20260506101205 | 50 | 255 | 0.0 | 0.9 | 0.00 | 0.00 | 0.00 | 93 | 1018.3 |
| 20260506100635 | 50 | 255 | 0.0 | 0.9 | 0.00 | 0.00 | 0.00 | 93 | 1018.2 |
| 20260506100205 | 50 | 255 | 0.0 | 1.7 | 0.00 | 0.00 | 0.00 | 93 | 1018.2 |
| 20260506095635 | 50 | 256 | 0.0 | 1.7 | 0.00 | 0.00 | 0.00 | 93 | 1018.2 |
| 20260506095204 | 50 | 255 | 0.0 | 3.5 | 0.00 | 0.00 | 0.00 | 93 | 1018.2 |
| 20260506094635 | 50 | 274 | 0.0 | 3.5 | 0.00 | 0.00 | 0.00 | 93 | 1018.2 |
| 20260506094135 | 50 | 266 | 0.9 | 3.5 | 0.00 | 0.00 | 0.00 | 93 | 1018.2 |
| 20260506093704 | 50 | 258 | 2.6 | 4.3 | 0.00 | 0.00 | 0.00 | 93 | 1018.1 |
| 20260506093204 | 50 | 264 | 1.7 | 4.3 | 0.00 | 0.00 | 0.00 | 93 | 1018.1 |
| 20260506092704 | 50 | 248 | 1.7 | 4.3 | 0.00 | 0.00 | 0.00 | 94 | 1018.0 |
| 20260506092204 | 50 | 248 | 2.6 | 4.3 | 0.00 | 0.00 | 0.00 | 94 | 1018.0 |
| 20260506091704 | 50 | 250 | 4.3 | 4.3 | 0.00 | 0.00 | 0.00 | 94 | 1018.0 |
| 20260506091204 | 50 | 219 | 1.7 | 4.3 | 0.00 | 0.00 | 0.00 | 94 | 1018.1 |
| 20260506090634 | 50 | 267 | 0.9 | 4.3 | 0.00 | 0.00 | 0.00 | 94 | 1018.1 |
| 20260506090204 | 49 | 259 | 1.7 | 4.3 | 0.00 | 0.00 | 0.00 | 94 | 1018.1 |
| 20260506085133 | 49 | 255 | 2.6 | 3.5 | 0.00 | 0.00 | 0.00 | 94 | 1018.1 |
| 20260506084703 | 49 | 247 | 0.0 | 3.5 | 0.00 | 0.00 | 0.00 | 94 | 1018.0 |
| 20260506084203 | 49 | 237 | 2.6 | 3.5 | 0.00 | 0.00 | 0.00 | 94 | 1018.0 |
| 20260506083634 | 49 | 258 | 1.7 | 3.5 | 0.00 | 0.00 | 0.00 | 94 | 1018.0 |
| 20260506083203 | 49 | 276 | 1.7 | 3.5 | 0.00 | 0.00 | 0.00 | 94 | 1018.0 |
| 20260506082703 | 49 | 274 | 2.6 | 3.5 | 0.00 | 0.00 | 0.00 | 94 | 1018.0 |
| 20260506082133 | 49 | 271 | 1.7 | 3.5 | 0.00 | 0.00 | 0.00 | 94 | 1017.9 |
| 20260506081703 | 49 | 282 | 2.6 | 3.5 | 0.00 | 0.00 | 0.00 | 94 | 1017.8 |
| 20260506081203 | 49 | 284 | 1.7 | 3.5 | 0.00 | 0.00 | 0.00 | 94 | 1017.7 |
| 20260506080703 | 49 | 249 | 1.7 | 3.5 | 0.00 | 0.00 | 0.00 | 94 | 1017.7 |
| 20260506080203 | 49 | 250 | 2.6 | 3.5 | 0.00 | 0.00 | 0.00 | 94 | 1017.7 |
| 20260506073202 | 49 | 268 | 1.7 | 3.5 | 0.00 | 0.00 | 0.00 | 93 | 1017.3 |
| 20260506072702 | 49 | 276 | 0.9 | 3.5 | 0.00 | 0.00 | 0.00 | 93 | 1017.2 |
| 20260506072202 | 49 | 270 | 1.7 | 3.5 | 0.00 | 0.00 | 0.00 | 93 | 1017.2 |
| 20260506071702 | 49 | 264 | 1.7 | 3.5 | 0.00 | 0.00 | 0.00 | 93 | 1017.2 |
| 20260506071202 | 50 | 274 | 1.7 | 4.3 | 0.00 | 0.00 | 0.00 | 93 | 1017.1 |
| 20260506070702 | 50 | 254 | 0.9 | 4.3 | 0.00 | 0.00 | 0.00 | 93 | 1017.2 |
| 20260506062201 | 50 | 259 | 3.5 | 6.1 | 0.00 | 0.00 | 0.00 | 92 | 1016.9 |
| 20260506061701 | 50 | 233 | 3.5 | 7.0 | 0.00 | 0.00 | 0.00 | 92 | 1016.9 |
| 20260506061201 | 50 | 262 | 6.1 | 7.8 | 0.00 | 0.00 | 0.00 | 92 | 1017.0 |
| 20260506060701 | 50 | 259 | 2.6 | 7.8 | 0.00 | 0.00 | 0.00 | 92 | 1016.9 |
| 20260506060201 | 50 | 254 | 3.5 | 7.8 | 0.00 | 0.00 | 0.00 | 92 | 1017.0 |
| 20260506050700 | 51 | 257 | 6.1 | 7.0 | 0.00 | 0.00 | 0.00 | 91 | 1016.7 |
| 20260506050200 | 51 | 264 | 3.5 | 7.0 | 0.00 | 0.00 | 0.00 | 91 | 1016.7 |
| 20260506044659 | 51 | 280 | 3.5 | 7.0 | 0.00 | 0.00 | 0.00 | 90 | 1016.6 |
| 20260506044159 | 51 | 262 | 3.5 | 7.0 | 0.00 | 0.00 | 0.00 | 90 | 1016.6 |
| 20260506043659 | 51 | 265 | 1.7 | 4.3 | 0.00 | 0.00 | 0.00 | 90 | 1016.4 |
| 20260506043159 | 51 | 287 | 1.7 | 5.2 | 0.00 | 0.00 | 0.00 | 90 | 1016.4 |
| 20260506042659 | 51 | 251 | 3.5 | 5.2 | 0.00 | 0.00 | 0.00 | 90 | 1016.3 |
| 20260506042159 | 52 | 277 | 2.6 | 5.2 | 0.00 | 0.00 | 0.00 | 90 | 1016.3 |
| 20260506041659 | 52 | 267 | 2.6 | 4.3 | 0.00 | 0.00 | 0.00 | 89 | 1016.2 |
| 20260506040659 | 52 | 282 | 3.5 | 4.3 | 0.00 | 0.00 | 0.00 | 89 | 1016.0 |
| 20260506040158 | 52 | 282 | 2.6 | 4.3 | 0.00 | 0.00 | 0.00 | 89 | 1016.0 |
| 20260506035658 | 52 | 270 | 2.6 | 4.3 | 0.00 | 0.00 | 0.00 | 88 | 1015.9 |
| 20260506035159 | 52 | 257 | 4.3 | 4.3 | 0.00 | 0.00 | 0.00 | 88 | 1015.9 |
| 20260506034658 | 53 | 257 | 3.5 | 5.2 | 0.00 | 0.00 | 0.00 | 88 | 1015.9 |
| 20260506034159 | 53 | 269 | 3.5 | 5.2 | 0.00 | 0.00 | 0.00 | 88 | 1015.9 |
| 20260506033658 | 53 | 283 | 3.5 | 5.2 | 0.00 | 0.00 | 0.00 | 87 | 1015.8 |
| 20260506033158 | 53 | 271 | 4.3 | 4.3 | 0.00 | 0.00 | 0.00 | 87 | 1015.8 |
| 20260506032658 | 54 | 274 | 2.6 | 5.2 | 0.00 | 0.00 | 0.00 | 86 | 1015.7 |
| 20260506032158 | 54 | 276 | 3.5 | 5.2 | 0.00 | 0.00 | 0.00 | 86 | 1015.8 |
| 20260506031658 | 54 | 285 | 2.6 | 5.2 | 0.00 | 0.00 | 0.00 | 86 | 1015.8 |
| 20260506031158 | 54 | 288 | 3.5 | 4.3 | 0.00 | 0.00 | 0.00 | 85 | 1015.8 |
| 20260506025658 | 55 | 236 | 3.5 | 7.0 | 0.00 | 0.00 | 0.00 | 84 | 1015.9 |
| 20260506025157 | 55 | 265 | 5.2 | 7.0 | 0.00 | 0.00 | 0.00 | 84 | 1015.9 |
| 20260506023157 | 56 | 269 | 1.7 | 5.2 | 0.00 | 0.00 | 0.00 | 83 | 1015.8 |
| 20260506022657 | 56 | 270 | 2.6 | 6.1 | 0.00 | 0.00 | 0.00 | 83 | 1015.8 |
| 20260506022157 | 56 | 295 | 3.5 | 6.1 | 0.00 | 0.00 | 0.00 | 82 | 1015.8 |
| 20260506020656 | 56 | 272 | 3.5 | 6.1 | 0.00 | 0.00 | 0.00 | 82 | 1015.8 |
| 20260506020156 | 56 | 274 | 2.6 | 7.8 | 0.00 | 0.00 | 0.00 | 82 | 1015.8 |
| 20260506015656 | 56 | 242 | 4.3 | 7.8 | 0.00 | 0.00 | 0.00 | 81 | 1015.8 |
| 20260506014656 | 57 | 281 | 1.7 | 7.8 | 0.00 | 0.00 | 0.00 | 81 | 1015.9 |
| 20260506014156 | 57 | 278 | 2.6 | 7.8 | 0.00 | 0.00 | 0.00 | 81 | 1015.9 |
| 20260506013156 | 57 | 264 | 4.3 | 9.6 | 0.00 | 0.00 | 0.00 | 80 | 1016.0 |
| 20260506012656 | 57 | 287 | 6.1 | 9.6 | 0.00 | 0.00 | 0.00 | 81 | 1015.9 |
| 20260506012156 | 58 | 294 | 5.2 | 8.7 | 0.00 | 0.00 | 0.00 | 79 | 1016.0 |
| 20260506011655 | 58 | 286 | 5.2 | 8.7 | 0.00 | 0.00 | 0.00 | 78 | 1016.0 |
| 20260506011155 | 58 | 291 | 3.5 | 7.0 | 0.00 | 0.00 | 0.00 | 79 | 1015.9 |
| 20260506010655 | 58 | 309 | 4.3 | 7.8 | 0.00 | 0.00 | 0.00 | 78 | 1016.0 |
| 20260506010155 | 59 | 329 | 6.1 | 7.8 | 0.00 | 0.00 | 0.00 | 79 | 1016.0 |
| 20260506005655 | 58 | 245 | 1.7 | 9.6 | 0.00 | 0.00 | 0.00 | 79 | 1016.0 |
| 20260506005155 | 58 | 294 | 4.3 | 9.6 | 0.00 | 0.00 | 0.00 | 79 | 1016.0 |
| 20260506004655 | 58 | 294 | 3.5 | 7.8 | 0.00 | 0.00 | 0.00 | 79 | 1016.0 |
| 20260506004155 | 58 | 300 | 3.5 | 7.8 | 0.00 | 0.00 | 0.00 | 79 | 1016.0 |
| 20260506003655 | 58 | 206 | 6.1 | 7.8 | 0.00 | 0.00 | 0.00 | 79 | 1016.1 |
| 20260506003155 | 58 | 268 | 1.7 | 7.0 | 0.00 | 0.00 | 0.00 | 79 | 1016.1 |
| 20260506002655 | 58 | 300 | 4.3 | 8.7 | 0.00 | 0.00 | 0.00 | 79 | 1016.0 |
| 20260506002155 | 58 | 282 | 3.5 | 8.7 | 0.00 | 0.00 | 0.00 | 80 | 1016.1 |
| 20260506001655 | 58 | 326 | 5.2 | 7.8 | 0.00 | 0.00 | 0.00 | 80 | 1016.1 |
| 20260506001155 | 58 | 283 | 3.5 | 7.8 | 0.00 | 0.00 | 0.00 | 80 | 1016.0 |
| 20260506000655 | 59 | 328 | 4.3 | 6.1 | 0.00 | 0.00 | 0.00 | 80 | 1016.0 |
| 20260506000155 | 59 | 251 | 2.6 | 6.1 | 0.00 | 0.00 | 0.00 | 80 | 1016.1 |
| 20260505235654 | 58 | 245 | 1.7 | 6.1 | 0.00 | 0.00 | 0.00 | 81 | 1016.1 |
| 20260505234654 | 58 | 259 | 3.5 | 6.1 | 0.00 | 0.00 | 0.00 | 82 | 1016.3 |
| 20260505234154 | 58 | 347 | 4.3 | 5.2 | 0.00 | 0.00 | 0.00 | 81 | 1016.3 |
| 20260505233154 | 58 | 340 | 4.3 | 6.1 | 0.00 | 0.00 | 0.00 | 82 | 1016.4 |